This demonstration page uses our WeatherBlox Daily Observations layout. Learn more.

39.01783, -85.05884

Hourly Observations for November 16, 2019

Temp ( °F °C ) Dew Point ( °F °C ) Humidity (%) Winds ( mph kmh ) Pressure ( in mb ) Visibility ( mi km ) Precip ( " mm )
1:07 am 01:07 Mostly Cloudy with Haze 32 0 25 -3.9 75 75 NE 14 22 30.39 1029 6 9.65604 0 0
1:23 am 01:23 Cloudy with Haze 32 0 25 -3.9 75 75 NNE 16 26 30.39 1029 6 9.65604 0 0
1:52 am 01:52 Cloudy with Haze 32 0 25 -3.9 75 75 NNE 16 26 30.34 1028 6 9.65604 0 0
2:52 am 02:52 Cloudy with Haze 32 0 25 -3.9 75 75 NE 14 22 30.34 1027 6 9.65604 0 0
3:52 am 03:52 Cloudy with Haze 32 0 25 -3.9 75 75 NE 15 24 30.34 1027 6 9.65604 0 0
4:52 am 04:52 Cloudy with Haze 32 0 25 -3.9 75 75 NE 13 20 30.34 1027 6 9.65604 0 0
5:28 am 05:28 Partly Cloudy 31 -0.6 25 -3.9 79 79 NNE 6 9 30.38 1029 8 12.87472 0 0
5:52 am 05:52 Clear 31 -0.6 25 -3.9 79 79 NNE 6 9 30.35 1028 8 12.87472 0 0
6:52 am 06:52 Hazy 30 -1.1 24 -4.4 79 79 NNE 7 11 30.36 1028 5 8.0467 0 0
7:52 am 07:52 Hazy 30 -1.1 24 -4.4 79 79 NNE 6 9 30.37 1029 4 6.43736 0 0
8:52 am 08:52 Hazy 34 1.1 26 -3.3 73 73 NE 10 17 30.37 1029 4 6.43736 0 0
9:52 am 09:52 Hazy 37 2.8 26 -3.3 65 65 NE 13 20 30.38 1029 6 9.65604 0 0
10:52 am 10:52 Mostly Sunny 40 4.4 26 -3.3 58 58 ENE 21 33 30.37 1028 9 14.48406 0 0
11:52 am 11:52 Mostly Sunny 42 5.6 27 -2.8 55 55 ENE 12 19 30.34 1027 9 14.48406 0 0
12:52 pm 12:52 Partly Cloudy 44 6.7 26 -3.3 49 49 ENE 12 19 30.3 1026 10 16.0934 0 0
1:52 pm 13:52 Mostly Sunny 45 7.2 26 -3.3 48 48 N 9 15 30.26 1025 10 16.0934 0 0
2:52 pm 14:52 Mostly Sunny 45 7.2 26 -3.3 48 48 NNE 9 15 30.25 1024 10 16.0934 0 0
3:52 pm 15:52 Mostly Sunny 45 7.2 26 -3.3 48 48 NNE 12 19 30.24 1024 10 16.0934 0 0
4:52 pm 16:52 Mostly Sunny 42 5.6 27 -2.8 55 55 NE 13 20 30.24 1024 9 14.48406 0 0
5:52 pm 17:52 Mostly Clear 39 3.9 27 -2.8 62 62 NE 8 13 30.25 1024 9 14.48406 0 0
6:52 pm 18:52 Mostly Clear 37 2.8 26 -3.3 65 65 NNE 7 11 30.25 1024 9 14.48406 0 0
7:52 pm 19:52 Mostly Clear 36 2.2 26 -3.3 67 67 NE 7 11 30.24 1024 9 14.48406 0 0
8:52 pm 20:52 Partly Cloudy 34 1.1 26 -3.3 73 73 NE 8 13 30.23 1024 9 14.48406 0 0
9:52 pm 21:52 Partly Cloudy 36 2.2 27 -2.8 70 70 NE 8 13 30.21 1023 10 16.0934 0 0
10:52 pm 22:52 Partly Cloudy 34 1.1 26 -3.3 73 73 NE 6 9 30.19 1023 10 16.0934 0 0
11:52 pm 23:52 Clear 32 0 25 -3.9 75 75 NE 3 6 30.18 1022 10 16.0934 0 0

Powered by AerisWeather